Tiempo cada hora Cedar Park

Hoy, 18 Abril, Domingo

Tiempo Temperatura Precipitaciones Viento Presión Humedad
00:00 +10°C° 0 mm 4 mps 739 mmHg 71%
01:00 +8°C° 0 mm 4 mps 739 mmHg 72%
02:00 +8°C° 0 mm 5 mps 739 mmHg 72%
03:00 +8°C° 0 mm 4 mps 740 mmHg 73%
04:00 +8°C° 0 mm 3 mps 740 mmHg 74%
05:00 +8°C° 0 mm 3 mps 741 mmHg 75%
06:00 +8°C° 0 mm 4 mps 741 mmHg 69%
07:00 +10°C° 0 mm 5 mps 741 mmHg 63%
08:00 +11°C° 0 mm 6 mps 741 mmHg 58%
09:00 +13°C° 0 mm 6 mps 740 mmHg 54%
10:00 +15°C° 0 mm 6 mps 740 mmHg 50%
11:00 +16°C° 0 mm 6 mps 740 mmHg 46%
12:00 +17°C° 0 mm 6 mps 739 mmHg 45%
13:00 +17°C° 0 mm 5 mps 739 mmHg 43%
14:00 +19°C° 0 mm 5 mps 738 mmHg 42%
15:00 +19°C° 0 mm 5 mps 738 mmHg 45%
16:00 +18°C° 0 mm 4 mps 738 mmHg 48%
17:00 +17°C° 0 mm 4 mps 738 mmHg 51%
18:00 +16°C° 0 mm 3 mps 739 mmHg 55%
19:00 +14°C° 0 mm 3 mps 739 mmHg 59%
20:00 +14°C° 0 mm 2 mps 739 mmHg 63%
21:00 +13°C° 0 mm 2 mps 739 mmHg 65%
22:00 +12°C° 0 mm 2 mps 739 mmHg 67%
23:00 +12°C° 0 mm 2 mps 739 mmHg 69%

Mañana, 19 Abril, Lunes

Tiempo Temperatura Precipitaciones Viento Presión Humedad
00:00 +10°C° 0 mm 2 mps 739 mmHg 69%
01:00 +11°C° 0 mm 1 mps 739 mmHg 69%
02:00 +11°C° 0 mm 1 mps 739 mmHg 69%
03:00 +11°C° 0 mm 1 mps 739 mmHg 69%
04:00 +11°C° 0 mm 1 mps 739 mmHg 69%
05:00 +11°C° 0 mm 1 mps 739 mmHg 69%
06:00 +12°C° 0 mm 1 mps 739 mmHg 64%
07:00 +14°C° 0 mm 1 mps 739 mmHg 60%
08:00 +15°C° 0 mm 2 mps 739 mmHg 55%
09:00 +17°C° 0 mm 2 mps 739 mmHg 50%
10:00 +18°C° 0 mm 2 mps 738 mmHg 44%
11:00 +20°C° 0 mm 2 mps 738 mmHg 39%
12:00 +20°C° 0 mm 2 mps 737 mmHg 38%
13:00 +21°C° 0 mm 2 mps 737 mmHg 37%
14:00 +21°C° 0 mm 2 mps 736 mmHg 36%
15:00 +21°C° 0 mm 2 mps 736 mmHg 40%
16:00 +20°C° 0 mm 2 mps 736 mmHg 44%
17:00 +20°C° 0 mm 3 mps 736 mmHg 48%
18:00 +18°C° 0 mm 3 mps 736 mmHg 52%
19:00 +16°C° 0 mm 3 mps 736 mmHg 56%
20:00 +13°C° 0 mm 3 mps 736 mmHg 60%
21:00 +14°C° 0 mm 2 mps 736 mmHg 62%
22:00 +13°C° 0 mm 2 mps 736 mmHg 64%
23:00 +13°C° 0 mm 2 mps 737 mmHg 67%

Pasado mañana, 20 Abril, Martes

Tiempo Temperatura Precipitaciones Viento Presión Humedad
00:00 +13°C° 0 mm 2 mps 736 mmHg 69%
01:00 +12°C° 0 mm 2 mps 736 mmHg 72%
02:00 +12°C° 0 mm 2 mps 736 mmHg 74%
03:00 +12°C° 0 mm 2 mps 736 mmHg 75%
04:00 +12°C° 0 mm 2 mps 736 mmHg 76%
05:00 +12°C° 0 mm 2 mps 736 mmHg 77%
06:00 +13°C° 0 mm 3 mps 736 mmHg 69%
07:00 +17°C° 0 mm 3 mps 736 mmHg 61%
08:00 +19°C° 0 mm 4 mps 737 mmHg 53%
09:00 +21°C° 0 mm 3 mps 737 mmHg 48%
10:00 +24°C° 0 mm 3 mps 737 mmHg 43%
11:00 +26°C° 0 mm 2 mps 737 mmHg 39%
12:00 +25°C° 0 mm 4 mps 736 mmHg 42%
13:00 +24°C° 0 mm 6 mps 736 mmHg 45%
14:00 +23°C° 0 mm 8 mps 736 mmHg 49%
15:00 +21°C° 0 mm 8 mps 737 mmHg 52%
16:00 +17°C° 0 mm 9 mps 737 mmHg 55%
17:00 +15°C° 0 mm 9 mps 738 mmHg 58%
18:00 +12°C° 0 mm 9 mps 739 mmHg 59%
19:00 +11°C° 0 mm 9 mps 740 mmHg 60%
20:00 +9°C° 0 mm 8 mps 741 mmHg 60%
21:00 +7°C° 0 mm 8 mps 741 mmHg 61%
22:00 +6°C° 0 mm 7 mps 742 mmHg 62%
23:00 +7°C° 0 mm 6 mps 742 mmHg 63%

21 Abril, Miércoles

Tiempo Temperatura Precipitaciones Viento Presión Humedad
00:00 +5°C° 0 mm 6 mps 742 mmHg 64%
01:00 +4°C° 0 mm 6 mps 742 mmHg 66%
02:00 +3°C° 0 mm 5 mps 742 mmHg 67%
03:00 +3°C° 0 mm 5 mps 742 mmHg 64%
04:00 +3°C° 0 mm 5 mps 742 mmHg 62%
05:00 +2°C° 0 mm 5 mps 743 mmHg 60%
06:00 +5°C° 0 mm 5 mps 743 mmHg 53%
07:00 +6°C° 0 mm 5 mps 744 mmHg 47%
08:00 +8°C° 0 mm 5 mps 744 mmHg 41%
09:00 +9°C° 0 mm 5 mps 744 mmHg 39%
10:00 +10°C° 0 mm 5 mps 743 mmHg 36%
11:00 +12°C° 0 mm 4 mps 743 mmHg 34%
12:00 +14°C° 0 mm 4 mps 742 mmHg 33%
13:00 +17°C° 0 mm 4 mps 741 mmHg 32%
14:00 +18°C° 0 mm 3 mps 741 mmHg 31%
15:00 +18°C° 0 mm 3 mps 740 mmHg 35%
16:00 +17°C° 0 mm 3 mps 740 mmHg 38%
17:00 +17°C° 0 mm 3 mps 740 mmHg 42%
18:00 +14°C° 0 mm 3 mps 740 mmHg 46%
19:00 +13°C° 0 mm 3 mps 740 mmHg 51%
20:00 +11°C° 0 mm 3 mps 740 mmHg 55%
21:00 +10°C° 0 mm 3 mps 740 mmHg 57%
22:00 +10°C° 0 mm 3 mps 741 mmHg 59%
23:00 +9°C° 0 mm 3 mps 741 mmHg 61%

22 Abril, Jueves

Tiempo Temperatura Precipitaciones Viento Presión Humedad
00:00 +9°C° 0 mm 3 mps 740 mmHg 63%
01:00 +8°C° 0 mm 3 mps 740 mmHg 65%
02:00 +8°C° 0 mm 3 mps 740 mmHg 67%
03:00 +8°C° 0 mm 2 mps 740 mmHg 68%
04:00 +7°C° 0 mm 2 mps 740 mmHg 68%
05:00 +7°C° 0 mm 2 mps 740 mmHg 69%
06:00 +9°C° 0 mm 3 mps 740 mmHg 67%
07:00 +11°C° 0 mm 4 mps 741 mmHg 65%
08:00 +14°C° 0 mm 5 mps 741 mmHg 63%
09:00 +14°C° 0 mm 5 mps 740 mmHg 63%
10:00 +15°C° 0 mm 6 mps 740 mmHg 64%
11:00 +16°C° 0 mm 6 mps 740 mmHg 65%
12:00 +17°C° 0 mm 6 mps 739 mmHg 67%
13:00 +17°C° 0 mm 6 mps 738 mmHg 69%
14:00 +17°C° 0 mm 6 mps 737 mmHg 71%
15:00 +17°C° 0.1 mm 6 mps 737 mmHg 76%
16:00 +16°C° 0.1 mm 5 mps 737 mmHg 82%
17:00 +15°C° 0.1 mm 5 mps 737 mmHg 87%
18:00 +15°C° 0.2 mm 5 mps 737 mmHg 89%
19:00 +15°C° 0.2 mm 5 mps 737 mmHg 92%
20:00 +15°C° 0.2 mm 5 mps 737 mmHg 94%
21:00 +15°C° 0.1 mm 5 mps 737 mmHg 94%
22:00 +16°C° 0.1 mm 5 mps 736 mmHg 95%
23:00 +16°C° 0.1 mm 6 mps 736 mmHg 95%

23 Abril, Viernes

Tiempo Temperatura Precipitaciones Viento Presión Humedad
00:00 +16°C° 0 mm 5 mps 736 mmHg 95%
01:00 +17°C° 0 mm 4 mps 735 mmHg 96%
02:00 +18°C° 0 mm 4 mps 735 mmHg 96%
03:00 +18°C° 0.3 mm 4 mps 735 mmHg 97%
04:00 +18°C° 0.3 mm 4 mps 735 mmHg 97%
05:00 +18°C° 0.3 mm 4 mps 735 mmHg 98%
06:00 +18°C° 2.1 mm 4 mps 734 mmHg 98%
07:00 +19°C° 2.1 mm 5 mps 734 mmHg 97%
08:00 +19°C° 2.1 mm 5 mps 734 mmHg 97%
09:00 +19°C° 3.8 mm 4 mps 734 mmHg 97%
10:00 +19°C° 3.8 mm 3 mps 733 mmHg 98%
11:00 +19°C° 3.8 mm 2 mps 733 mmHg 98%
12:00 +19°C° 2.8 mm 2 mps 733 mmHg 98%
13:00 +19°C° 2.8 mm 3 mps 732 mmHg 98%
14:00 +19°C° 2.8 mm 3 mps 732 mmHg 98%
15:00 +18°C° 0.2 mm 4 mps 732 mmHg 98%
16:00 +17°C° 0.2 mm 5 mps 733 mmHg 97%
17:00 +16°C° 0.2 mm 7 mps 733 mmHg 97%
18:00 +16°C° 0.1 mm 7 mps 733 mmHg 97%
19:00 +15°C° 0.1 mm 7 mps 734 mmHg 96%
20:00 +15°C° 0.1 mm 7 mps 734 mmHg 96%
21:00 +15°C° 0.1 mm 6 mps 734 mmHg 95%
22:00 +14°C° 0.1 mm 5 mps 735 mmHg 94%
23:00 +14°C° 0.1 mm 4 mps 735 mmHg 94%
Mostrar más

Necesitamos Su Consentimiento

Meteoprog y nuestros Proveedores de Servicios pueden almacenar y acceder a sus datos personales como cookies, identificadores de dispositivo u otras tecnologías similares de su dispositivo y procesar dichos datos para personalizar contenido y anuncios, además de ofrecer funciones de redes sociales y analizar el tráfico.

  • Almacenar y/o acceder a información en su dispositivo

    Se puede almacenar o acceder a cookies, identificadores de dispositivo u otra información de su dispositivo para los fines anteriormente indicados.

  • Anuncios y contenido personalizados, medición de anuncios y contenido, percepciones del público, y desarrollo de productos

    Los anuncios y el contenido pueden personalizarse en base a su perfil. Se pueden añadir más datos para personalizar mejor los anuncios y contenidos. Se puede medir el rendimiento de los anuncios y contenidos. Se puede obtener la percepción sobre el público que ha visto los anuncios y contenidos. Dichos datos pueden usarse para desarrollar o mejorar la experiencia del usuario, sistemas y software.

Al hacer clic en ‘Estoy De Acuerdo’ usted permitirá el uso de las cookies, identificadores de dispositivo, balizas web u otras tecnologías similares indicadas. Su configuración puede cambiarse desde el navegador de su dispositivo.

Para ciertos fines, los intereses legítimos pueden ser considerados por encima del consentimiento. Puede leer más sobre ello en nuestra Política de Privacidad y Cookies.